Regional Weather Roundup
Issued by NWS Pendleton, OR

Home | Current Version | Previous Version | Text Only | Print | Product List | Glossary On
Versions: 1 2 3 4 5 6 7 8 9 10 11 12 13 14 15 16 17 18 19 20 21 22 23 24 25 26 27 28 29 30 31 32 33 34 35 36 37 38 39 40 41 42 43 44 45 46 47 48 49 50
042
ASUS46 KPDT 290225
RWRPDT
PENDLETON REGIONAL WEATHER ROUNDUP
NATIONAL WEATHER SERVICE PENDLETON OREGON
700 PM PDT SUN MAY 28 2017

NOTE: FAIR INDICATES FEW OR NO CLOUDS BELOW 12,000 FEET WITH NO
SIGNIFICANT WEATHER AND/OR OBSTRUCTIONS TO VISIBILITY.

# INDICATES UNOFFICIAL STATION AND DATA

WAZ520-290310-
EAST SLOPES OF WASHINGTON CASCADES

CITY            SKY/WX      TMP DP  RH  WIND    PRES   REMARKS
#BULLFROG       N/A         81  48  32  CALM    N/A
#CLE ELUM HS    N/A         81  42  25  CALM    29.97F
#CLE ELUM LAKE  N/A         81  50  34  S2      30.01F
#EASTON DOT     N/A         80  47  31  N3      N/A
#ELK HTS DOT    N/A         82  82  100 E3      N/A
#GLENWOOD       N/A         83  53  36  CALM    29.94F
#NELSON 3SW     N/A         69  51  53  CALM    30.14F
#NILE           N/A         83  47  28  CALM    29.25S
#TEANAWAY 4NE   N/A         79  54  42  CALM    N/A
#TROUT LAKE 1NE N/A         84  47  28  CALM    29.93F
#TROUT LAKE 1E  N/A         84  47  28  CALM    30.04F
$$

WAZ521-290310-
SIMCOE HIGHLANDS

CITY            SKY/WX      TMP DP  RH  WIND    PRES   REMARKS
#BICKLETON HS   N/A         76  50  40  NE6     30.06F
#CENTERVILLE 1SWN/A         82  53  37  E1      29.91F
#GOLDENDALE 1NE N/A         83  32  16  SE7     N/A
#GOLDENDALE 4W  N/A         86  25  11  S2      30.04F
#GOODNOE HILLS  N/A         85  49  29  E6      N/A
#LYLE 6NE       N/A         86  54  34  CALM    29.90F
#PITT 4SE       N/A         82  50  33  CALM    29.96F
$$

WAZ026-290310-
KITTITAS VALLEY

CITY            SKY/WX      TMP DP  RH  WIND    PRES   REMARKS
ELLENSBURG AP   SUNNY       87  42  21  E6      30.02F
YTC-OPS AREA    SUNNY       75  37  25  E7      30.12F
#ELLENSBURG CWU N/A         85  45  25  E3      29.89F
#ELLENSBURG 3NE N/A         82  52  35  CALM    28.10F
#KITTITAS 4N    N/A         92  57  31  E2      30.05F HX 91
#KITTITAS 3S    N/A         78  58  50  CALM    29.94F
#MANASTASH RDG  N/A         84  84  100 E2      N/A
#ROCKY CYN DOT  N/A         83  48  30  SE3     N/A
#RYEGRASS DOT   N/A         80  45  29  E7      N/A
#THORP 6N       N/A         80  47  31  E2      29.97F
$$

WAZ027-290310-
YAKIMA VALLEY

CITY            SKY/WX      TMP DP  RH  WIND    PRES   REMARKS
SUNNYSIDE AP    SUNNY       82  50  33  N5      29.98F
YAKIMA AIRPORT  SUNNY       90  44  20  SE5     29.99F HX 86
YAKIMA-VAGABOND SUNNY       86  41  21  S12     29.99S
#DONALD 2NE     N/A         92  28  10  E1      28.84F HX 88
#GRANDVIEW      N/A         87  40  19  E2      29.95F
#MABTON         N/A         87  50  28  CALM    29.96F
#MOXEE 2E       N/A         85  N/A N/A SE3     29.97F
#NACHES 2SW     N/A         88  56  34  CALM    30.07S
#OUTLOOK DOT    N/A         88  39  18  E1      29.95F
#PARKER DOT     N/A         88  48  25  W2      29.98F
#TERRACE HTS    N/A         87  48  26  S1      29.91F
#TOPPENISH      N/A         88  49  26  E2      29.86F
#I82 S UMTANUM RN/A         84  46  27  E7      N/A
#UNION GAP DOT  N/A         88  42  20  S2      30.01F
#WEST VALLEY    N/A         87  42  21  SW1     29.92F
#W YAKIMA       N/A         88  47  24  CALM    29.94F
#WHITE SWAN 5E  N/A         86  56  36  CALM    29.94F
#WILEY CITY 3W  N/A         83  35  18  CALM    29.98F
#ZILLAH DOT     N/A         89  45  22  SE2     N/A
$$

WAZ028-290310-
LOWER COLUMBIA BASIN...WASHINGTON

CITY            SKY/WX      TMP DP  RH  WIND    PRES   REMARKS
PASCO           SUNNY       90  44  20  N6      29.96F HX 86
PROSSER AWOS    N/A         88  45  23  N8      30.00F
RICHLAND AWOS   SUNNY       89  46  23  E6      29.96F
#BENTON CITY    N/A         85  47  27  E1      29.85F
#CONNELL 5N     N/A         89  45  22  N1      29.95F
#CONNELL 5NW    N/A         85  58  40  CALM    29.89F
#ELTOPIA 6NW    N/A         87  51  29  CALM    28.96F
#KAHLOTUS       N/A         85  44  24  S3      29.94F
#KENNEWICK 3S   N/A         86  44  23  CALM    29.94F
#PATERSON       N/A         88  51  28  SE1     29.91F
#PROSSER DOT    N/A         88  46  23  NE2     29.98F
#SAGEMOOR 2W    N/A         89  53  29  CALM    29.81F
#TOUCHET 2S     N/A         81  69  67  CALM    29.92F
#WEST PASCO     N/A         94  52  24  N1      29.95F HX 91
$$

WAZ029-290310-
FOOTHILLS OF THE BLUES...WASHINGTON

CITY            SKY/WX      TMP DP  RH  WIND    PRES   REMARKS
WALLA WALLA AP  SUNNY       87  39  18  CALM    30.00F
#CLYDE 6NW      N/A         85  50  30  W2      29.93F
#DAYTON SCHOOL  N/A         83  46  27  SE1     30.04F
#DELANEY DOT    N/A         88  51  28  CALM    30.00F
#LOWDEN 2SE     N/A         88  54  31  CALM    29.93F
#PLEASANT VIEW 1N/A         80  49  34  S1      29.98F
#WHITMAN COLLEGEN/A         88  46  23  CALM    29.99F
#WAITSBURG 6SSE N/A         76  58  54  CALM    29.97F
#WAITSBURG 8N   N/A         86  N/A N/A CALM    30.05S
#WALLA WALLA 5E N/A         85  48  28  CALM    N/A
#WHITMAN MISSIONN/A         88  52  29  CALM    29.96S
$$

WAZ030-290310-
BLUE MOUNTAINS...WASHINGTON

CITY            SKY/WX      TMP DP  RH  WIND    PRES   REMARKS
#DIXIE 5SE      N/A         77  47  35  W2      30.04F
$$

ORZ009-041-WAZ024-290310-
COLUMBIA RIVER GORGE

CITY            SKY/WX      TMP DP  RH  WIND    PRES   REMARKS
HOOD RIVER AP   SUNNY       82  50  33  NW3     29.95F
THE DALLES AP   SUNNY       93  46  20  NE7     29.91F HX 89
#ARLINGTON AIRPON/A         86  47  26  E6      29.94F
#CELILO DOT     N/A         95  54  25  E2      N/A    HX 93
#LYLE           N/A         92  46  21  SE1     29.91F HX 88
#MARYHILL       N/A         88  44  22  N8      N/A
#MURDOCK        N/A         91  49  24  NE3     29.87F HX 88
#RUFUS DOT      N/A         89  46  23  SE8     N/A
#SMITHVILLE     N/A         89  47  24  E5      29.84F

$$

ORZ510-290310-
NORTH CENTRAL OREGON

CITY            SKY/WX      TMP DP  RH  WIND    PRES   REMARKS
#ANTELOPE       N/A         80  47  31  NE13    29.76F
#CHENOWITH 1W   N/A         51  35  54  NW14    N/A
#DUFUR          N/A         86  44  23  NE3     29.89F
#DUFUR 9E       N/A         81  43  26  E9      29.96F
#GRASS VALLEY 1SN/A         81  44  27  NE7     30.06F
#KENT DOT       N/A         83  39  21  NE10    N/A
#MAUPIN SCHOOL  N/A         88  48  25  E7      29.99F
#MORO SCHOOL    N/A         83  49  31  CALM    30.10F
#SHANIKO 5WSW   N/A         79  37  22  N18     N/A
#SHANIKO 4NW    N/A         77  37  24  N17G24  30.11F
#TYGH VALLEY 2NEN/A         88  44  22  N7      29.90F
#WAPANITIA AIRPON/A         84  44  25  NE7     29.93F
#WASCO DOT      N/A         86  48  27  E8      N/A
#WASCO 5NE      N/A         85  49  29  NE5     29.93F
$$

ORZ511-290310-
CENTRAL OREGON

CITY            SKY/WX      TMP DP  RH  WIND    PRES   REMARKS
BEND AIRPORT    PTCLDY      82  36  19  N13     29.99F
MADRAS AIRPORT  SUNNY       86  36  17  N9      30.03F
PRINEVILLE AP   PTCLDY      82  39  22  N13     30.04F
REDMOND AIRPORT SUNNY       85  30  14  N15     30.02F
#ASHWOOD SCHOOL N/A         83  41  23  N7      29.98F
#BEND 1SW       N/A         78  39  25  NE3     N/A
#BEND-AWBREY    N/A         83  41  23  NE2     29.88F
#BEND-KIM LN    N/A         84  40  21  NE7     29.83F
#CULVER         N/A         82  46  28  NE2     29.82F
#CULVER 8W      N/A         84  28  13  NE7     30.03F
#MADRAS 4S      N/A         84  26  12  N16     30.09
#POWELL BUTTE   N/A         82  37  20  N6      30.01F
#PRINEVILLE     N/A         85  38  19  NW3     29.94F
#PRINEVILLE 3N  N/A         80  44  28  N7      29.88F
#WARM SPRINGS   N/A         87  46  24  CALM    29.77F

$$


ORZ509-290310-
EAST SLOPES OF OREGON CASCADES

CITY            SKY/WX      TMP DP  RH  WIND    PRES   REMARKS
SISTERS AWOS    N/A         84  36  18  CALM    30.01F
#CAMP SHERMAN   N/A         81  39  22  CALM    30.00F
#LA PINE 4SW    N/A         78   2   5  N1      30.09S
#LA PINE 4NW    N/A         80  43  27  CALM    29.93F
#LAVA BUTTE DOT N/A         81  38  21  CALM    N/A
#SISTERS 3N     N/A         80  35  20  NE3     30.03S
#SUNRIVER       N/A         79  38  23  NE2     29.90F
#TUMALO 3W      N/A         81  39  22  N6      29.75F
#WANOGA BUTTE D N/A         70  32  24  NE6     N/A

$$

ORZ044-290310-
LOWER COLUMBIA BASIN...OREGON

CITY            SKY/WX      TMP DP  RH  WIND    PRES   REMARKS
HERMISTON       SUNNY       90  44  20  N7      29.96F HX 86
#BOARDMAN SCHOOLN/A         90  47  23  N1      29.93F HX 87
#BOARDMAN 8SW   N/A         89  51  27  NE8     29.92F
#ECHO 8SW       N/A         87  54  32  N3      29.98F
#IONE SCHOOL    N/A         86  44  23  CALM    29.94F
#UMATILLA       N/A         89  47  24  CALM    29.86F
$$

ORZ507-290310-
NORTHERN FOOTHILLS OF THE BLUES

CITY            SKY/WX      TMP DP  RH  WIND    PRES   REMARKS
PENDLETON AIRPT SUNNY       81  58  46  N6      30.01F
#ADAMS 3WNW     N/A         82  55  40  NE3     29.95F
#ATHENA         N/A         82  47  29  CALM    29.99F
#CAYUSE         N/A         83  55  38  N1      29.93F
#HELIX SCHOOL   N/A         82  44  26  N3      29.96F
#HELIX 3N       N/A         80  42  26  N6      30.01F
#HOLDMAN 5SE    N/A         84  46  27  CALM    30.00F
#HOLDMAN 6E     N/A         82  55  40  NW2     29.76F
#M-F FERNDALE   N/A         85  46  26  CALM    29.96F
#M-F GROVE ELEM N/A         85  42  22  N1      29.98F
#M-FREEWATER 5SEN/A         87  60  40  CALM    30.01S
#PENDLETON DNTN N/A         85  44  24  CALM    29.98F
#PDT AQUATIC CTRN/A         88  46  23  CALM    30.02F
#PDT SUNRIDGE   N/A         87  46  24  CALM    30.01S
#PENDLETON 7NW  N/A         85  51  31  CALM    32.49S
#PILOT ROCK 1S  N/A         83  45  26  CALM    30.03F
#PILOT ROCK     N/A         87  46  24  CALM    30.05F
#TUTUILLA       N/A         84  57  40  CALM    29.97F
#UMAPINE 2E     N/A         90  47  23  CALM    29.95F HX 87
#WESTON SCHOOL  N/A         81  43  26  NE2     29.93F

$$

ORZ508-290310-
SOUTHERN FOOTHILLS OF THE BLUES

CITY            SKY/WX      TMP DP  RH  WIND    PRES   REMARKS
LEXINGTON       SUNNY       84  39  20  NE8     30.05S
#AJAX           N/A         81  39  22  S10     30.18F
#CONDON 5W      N/A         76  38  25  NE7     30.08F
#FOSSIL SCHOOL  N/A         81  43  26  NE13    30.00S
#HEPPNER EOC    N/A         81  43  26  NE8     29.89F
#LEXINGTON 2SE  N/A         86  44  23  E5      29.99F
#MIKKALO        N/A         84  41  22  NE6     30.12F
#OLEX 4N        N/A         85  46  26  NE6     29.96F
#RUGGS 5NE      N/A         81  42  25  NE7     30.30R
#RUGGS 2SW      N/A         78  44  30  N7      29.96F

$$

ORZ502-503-290310-
BLUE MOUNTAINS

CITY            SKY/WX      TMP DP  RH  WIND    PRES   REMARKS
MEACHAM         SUNNY       74  37  26  CALM    30.15F
#GRANITE        N/A         73  34  24  SW3     29.80S
#GREENHORN 9SW  N/A         78  44  30  W1      30.09F
#LONG CREEK HS  N/A         76  45  33  CALM    N/A
#PIKES PEAK     N/A         74  46  37  CALM    27.99S
#SUMMERVILLE 5NWN/A         75  42  31  NW5     30.11F
#TOLLGATE       N/A         66  35  32  CALM    30.05F
#TROY SCHOOL    N/A         80  54  41  CALM    29.79S
#UKIAH          N/A         76  46  34  N3      29.92S
#WESTON 4E      N/A         77  49  37  CALM    29.93F
$$

ORZ505-290310-
JOHN DAY BASIN

CITY            SKY/WX      TMP DP  RH  WIND    PRES   REMARKS
JOHN DAY        PTCLDY      81  39  22  CALM    30.09F
#ANTELOPE 9ESE  N/A         87  42  21  NE10    N/A
#DAYVILLE SCHOOLN/A         89  34  14  N2      29.97F
#MITCHELL       N/A         84  47  28  CALM    30.18F
#MITCHELL 8NW   N/A         81  41  24  NE3     29.91S
#MONUMENT HS    N/A         88  35  15  SE2     29.94F
#MT. VERNON 5SE N/A         78  32  19  N3      30.05F
#SPRAY SCHOOL   N/A         85  N/A N/A CALM    N/A
$$

ORZ506-290310-
OCHOCO AND JOHN DAY HIGHLANDS

CITY            SKY/WX      TMP DP  RH  WIND    PRES   REMARKS
#HORSE RIDGE DO N/A         83  29  14  NW8     N/A
#IZEE 6NW       N/A         73  51  46  CALM    N/A
#PAULINA ODOT   N/A         82  28  14  NE3     N/A
#PINE MTN OBS   N/A         71  31  23  CALM    N/A
#PRAIRIE CITY   N/A         82  38  21  CALM    30.22F
#SENECA         N/A         80  N/A N/A SE2     N/A
#SENECA 9NW     N/A         72  38  29  CALM    29.97F
$$

ORZ049-290310-
GRANDE RONDE VALLEY

CITY            SKY/WX      TMP DP  RH  WIND    PRES   REMARKS
LA GRANDE       SUNNY       79  46  31  N9      30.07S
#COVE           N/A         81  58  46  CALM    30.10F
#COVE SCHOOL    N/A         84  48  29  CALM    30.09F
#COVE 6NW       N/A         79  50  36  N5      29.96F
#ELGIN 3N       N/A         82  35  18  CALM    30.04F
#ELGIN 1E       N/A         81  45  28  CALM    N/A
#IMBLER SCHOOL  N/A         78  44  30  CALM    30.03S
#LA GRANDE-LEFFEN/A         78  47  34  N6      30.07F
#UNION 1S       N/A         84  45  26  N1      29.96F
$$

ORZ050-290310-
WALLOWA COUNTY

CITY            SKY/WX      TMP DP  RH  WIND    PRES   REMARKS
JOSEPH AIRPORT  PTCLDY      75  39  27  CALM    30.17S
#ENTERPRISE HS  N/A         77  46  33  CALM    29.87F
#IMNAHA SCHOOL  N/A         79  46  31  CALM    30.01S
#IMNAHA 10S     N/A         76  49  39  CALM    30.05F
#JOSEPH         N/A         75  41  29  W1      30.14S
#JOSEPH 3N      N/A         75  41  29  NW1     30.16F
#LOSTINE        N/A         76  49  39  CALM    29.79F
#LOSTINE 3SE    N/A         74  45  35  W2      30.14F
#MT HOWARD 8000 N/A         55  39  55  N1      30.38F
#PROMISE 1S     N/A         75  49  40  NW3     30.06F
#WALLOWA LAKE   N/A         62  50  65  CALM    30.19F
#WALLOWA SCHOOL N/A         82  46  28  CALM    30.04F



$$



USA.gov is the U.S. government's official web portal to all federal, state and local government web resources and services.